Probability
0 0 0 0 0 0 0 0 0 0 0 0 0 0 0 0 0 0 0 0 0 0 0 0 0 0 0 0 0 0 0 0 0 0 0 0 0 0
0 0 0 0 0 0 0 0 0 0 0 0 0 0 0 0 0 0 0 0 0 0 0 0 0 0 0 0 0 0 0 0 0 0 0 0 0 0
0 0 0 0 0 0 0 0 0 0 0 0 0 0 0 0 0 0 0 0 0 0 0 0 0 0 0 0 0 0 0 0 0 0 0 0 0 0
0 0 0 0 0 0 0 0 0 0 0 0 0 0 0 0 0 0 0 0 0 0 0 0 0 0 0 0 0 0 0 0 0 0 0 0 0 0
0 0 0 0 0 0 0 0 0 0 0 0 0 0 0 0 0 0 0 0 0 0 0 0 0 0 0 0 0 0 0 0 0 0 0 0 0 0
0 0 0 0 0 0 0 0 0 0 0 0 0 0 0 0 0 0 0 0 0 0 0 0 0 0 0 0 0 0 0 0 0 0 0 0 0 0
0 0 0 0 0 0 0 0 0 0 0 0 0 0 0 0 0 0 0 0 0 0 0 0 0 0 0 0 0 0 0 0 0 0 0 0 0 0
0 0 0 0 0 0 0 0 0 0 0 0 0 0 0 0 0 0 0 0 0 0 0 0 0 0 0 0 0 0 0 0 0 0 0 0 0 0
0 0 0 0 0 0 0 0 0 0 0 0 0 0 0 0 0 0 0 0 0 0 0 0 0 0 0 0 0 0 0 0 0 0 0 0 0 0
0 0 0 0 0 0 0 0 0 0 0 0 0 0 0 0 0 0 0 0 0 0 0 0 0 0 0 0 0 0 0 0 0 0 0 0 0 0
0 0 0 0 0 0 0 0 0 0 0 0 0 0 0 0 0 0 0 0 0 0 0 0 0 0 0 0 0 0 0 0 0 0 0 0 0 0
0 0 0 0 0 0 0 0 0 0 0 0 0 0 0 0 0 0 0 0 0 0 0 0 0 0 0 0 0 0 0 0 0 0 0 0 0 0
0 0 0 0 0 0 0 0 0 0 0 0 0 0 0 0 0 0 0 0 0 0 0 0 0 0 0 0 0 0 0 0 0 0 0 0 0 0
0 0 0 0 0 0 0 0 0 0 0 0 0 0 0 0 0 0 0 0 0 0 0 0 0 0 0 0 0 0 0 0 0 0 0 0 0 0
0 0 0 0 0 0 0 0 0 0 0 0 0 0 0 0 0 0 0 0 0 0 0 0 0 0 0 0 0 0 0 0 0 0 0 0 0 0
0 0 0 0 0 0 0 0 0 0 0 0 0 0 0 0 0 0 0 0 0 0 0 0 0 0 0 0 0 0 0 0 0 0 0 0 0 0
0 0 0 0 0 0 0 0 0 0 0 0 0 0 0 0 0 0 0 0 0 0 0 0 0 0 0 0 0 0 0 0 0 0 0 0 0 0
0 0 0 0 0 0 0 0 0 0 0 0 0 0 0 0 0 0 0 0 0 0 0 0 0 0 0 0 0 0 0 0 0 0 0 0 0 0
0 0 0 0 0 0 0 0 0 0 0 0 0 0 0 0 0 0 0 0 0 0 0 0 0 0 0 0 0 0 0 0 0 0 0 0 0 0
0 0 0 0 0 0 0 0 0 0 0 0 0 0 0 0 0 0 0 0 0 0 0 0 0 0 0 0 0 0 0 0 0 0 0 0 0 0
0 0 0 0 0 0 0 0 0 0 0 0 0 0 0 0 0 0 0 0 0 0 0 0 0 0 0 0 0 0 0 0 0 0 0 0 0 0
0 0 0 0 0 0 0 0 0 0 0 0 0 0 0 0 0 0 0 0 0 0 0 0 0 0 0 0 0 0 0 0 0 0 0 0 0 0
0 0 0 0 0 0 0 0 0 0 0 0 0 0 0 0 0 0 0 0 0 0 0 0 0 0 0 0 0 0 0 0 0 0 0 0 0 0
Height
5751 5751 5750 5749 5747 5744 5742 5738 5735 5731 5727 5722 5717 5711 5705 5699 5692 5685 5677 5669 5661 5651 5642 5632 5622 5611 5600 5589 5578 5567 5556 5546 5537 5528 5519 5511 5503 5495
5744 5744 5743 5741 5739 5737 5734 5731 5727 5723 5719 5714 5709 5703 5697 5691 5684 5676 5668 5660 5651 5641 5632 5621 5611 5600 5588 5577 5566 5555 5545 5535 5526 5517 5508 5499 5491 5483
5736 5736 5735 5734 5732 5729 5727 5723 5719 5715 5711 5706 5701 5695 5689 5682 5675 5667 5659 5651 5641 5632 5622 5611 5600 5589 5578 5566 5555 5545 5535 5525 5516 5507 5497 5489 5480 5472
5728 5728 5727 5726 5724 5722 5719 5715 5712 5707 5703 5698 5693 5687 5681 5673 5666 5658 5650 5641 5632 5622 5612 5601 5590 5579 5567 5556 5545 5535 5525 5515 5506 5497 5487 5479 5470 5461
5720 5720 5719 5718 5716 5714 5711 5707 5704 5699 5695 5690 5685 5679 5672 5665 5657 5649 5641 5631 5622 5612 5603 5592 5581 5569 5558 5547 5536 5526 5515 5506 5497 5487 5477 5468 5460 5452
5712 5712 5711 5710 5708 5706 5703 5699 5696 5691 5687 5682 5676 5670 5664 5656 5649 5641 5632 5622 5613 5603 5593 5583 5572 5560 5549 5539 5528 5517 5507 5496 5486 5477 5468 5459 5451 5443
5704 5704 5703 5702 5700 5697 5695 5691 5688 5684 5679 5674 5668 5662 5655 5648 5640 5632 5623 5614 5604 5593 5583 5574 5564 5553 5541 5530 5519 5508 5497 5487 5477 5468 5459 5451 5443 5435
5695 5695 5695 5693 5691 5689 5686 5683 5680 5676 5671 5666 5660 5654 5647 5640 5632 5623 5614 5607 5598 5587 5575 5565 5554 5543 5532 5521 5510 5499 5489 5479 5469 5460 5451 5443 5436 5428
5687 5687 5686 5685 5683 5681 5678 5675 5672 5667 5663 5658 5652 5645 5639 5632 5624 5615 5606 5596 5587 5577 5566 5556 5544 5533 5522 5512 5501 5491 5481 5471 5461 5452 5444 5436 5429 5422
5679 5679 5678 5676 5675 5673 5670 5667 5664 5659 5655 5650 5644 5638 5631 5623 5615 5607 5597 5588 5578 5568 5557 5547 5536 5524 5513 5502 5492 5482 5473 5463 5454 5446 5438 5430 5423 5416
5670 5670 5669 5668 5667 5665 5662 5660 5656 5651 5646 5641 5636 5630 5623 5615 5607 5599 5590 5581 5571 5560 5550 5539 5529 5517 5505 5494 5484 5475 5465 5456 5448 5440 5432 5424 5417 5411
5661 5661 5661 5660 5659 5656 5654 5651 5647 5643 5638 5633 5628 5621 5615 5607 5599 5591 5582 5573 5563 5554 5543 5532 5521 5510 5500 5488 5478 5469 5460 5451 5442 5435 5427 5419 5412 5406
5653 5653 5652 5652 5650 5648 5646 5643 5639 5635 5630 5625 5620 5613 5606 5599 5591 5583 5575 5566 5556 5546 5535 5525 5514 5503 5492 5482 5472 5463 5454 5446 5437 5429 5422 5415 5408 5401
5644 5644 5644 5643 5642 5640 5637 5635 5631 5627 5622 5617 5612 5605 5598 5591 5583 5576 5567 5558 5549 5539 5528 5518 5507 5497 5487 5477 5468 5458 5450 5441 5433 5425 5417 5410 5403 5397
5636 5636 5636 5635 5634 5632 5630 5626 5623 5619 5615 5610 5604 5598 5591 5584 5576 5568 5559 5550 5541 5531 5521 5511 5501 5491 5481 5472 5463 5454 5446 5437 5429 5421 5413 5406 5399 5393
5627 5627 5627 5627 5626 5624 5621 5618 5615 5611 5607 5602 5596 5590 5583 5576 5569 5561 5553 5543 5533 5523 5514 5504 5495 5486 5476 5467 5458 5450 5442 5433 5425 5417 5410 5403 5396 5390
5619 5619 5619 5619 5618 5616 5614 5611 5608 5604 5599 5594 5588 5582 5576 5570 5562 5554 5546 5537 5527 5517 5507 5498 5489 5480 5471 5462 5454 5446 5438 5430 5422 5414 5407 5400 5394 5388
5611 5612 5612 5611 5610 5608 5606 5603 5600 5596 5592 5587 5581 5576 5569 5563 5555 5547 5539 5530 5521 5512 5502 5493 5484 5475 5466 5457 5450 5442 5434 5427 5419 5411 5404 5397 5391 5385
5603 5604 5604 5603 5602 5601 5599 5596 5593 5589 5584 5580 5574 5569 5563 5556 5549 5541 5532 5524 5515 5506 5497 5488 5479 5470 5462 5454 5446 5439 5431 5424 5416 5409 5402 5395 5388 5382
5595 5596 5596 5596 5595 5594 5591 5589 5585 5582 5577 5573 5568 5562 5556 5549 5542 5534 5526 5517 5508 5500 5491 5482 5474 5466 5458 5450 5443 5436 5428 5421 5413 5406 5399 5392 5385 5379
5588 5589 5589 5589 5588 5586 5584 5581 5578 5575 5571 5566 5561 5555 5549 5542 5535 5528 5520 5511 5503 5494 5486 5478 5469 5462 5454 5446 5440 5433 5426 5418 5410 5403 5396 5389 5383 5377
5580 5581 5582 5581 5580 5579 5577 5574 5571 5568 5564 5559 5554 5549 5543 5536 5529 5521 5513 5505 5497 5489 5481 5473 5466 5458 5451 5444 5436 5430 5423 5416 5408 5401 5394 5388 5381 5375
5573 5574 5574 5574 5573 5572 5570 5567 5565 5561 5557 5553 5548 5542 5536 5530 5523 5515 5508 5500 5492 5484 5477 5470 5462 5455 5448 5441 5434 5427 5420 5413 5406 5400 5393 5386 5380 5374
Wind_Speed
37 37 37 36 36 37 37 38 39 39 40 42 43 44 45 47 48 50 51 53 55 55 56 58 59 60 61 62 61 60 59 57 55 53 53 52 51 51
37 37 37 37 37 38 38 39 40 41 41 42 43 45 46 47 49 50 52 54 55 56 57 58 59 60 61 60 59 58 57 55 53 52 52 52 51 50
37 37 37 37 38 38 39 39 41 41 42 42 44 45 47 48 49 51 52 54 55 56 57 58 59 60 59 59 58 57 56 54 53 52 53 52 51 49
38 38 38 38 38 38 39 40 41 42 42 42 43 45 46 48 49 51 53 54 55 56 57 58 59 58 58 58 58 57 55 54 53 53 53 51 49 46
38 38 38 38 38 39 39 40 41 42 42 43 43 45 46 47 49 51 53 54 55 56 57 58 58 58 58 57 57 56 55 54 53 53 50 48 46 44
38 38 38 38 39 39 40 40 41 41 42 42 43 44 46 47 49 51 52 53 54 55 56 57 57 57 57 57 57 55 54 53 52 50 48 46 44 42
38 38 38 38 39 39 39 40 41 41 41 41 43 44 46 47 49 51 52 53 54 55 56 57 57 57 57 56 55 54 53 52 50 48 46 44 42 40
38 38 38 39 38 39 39 39 39 40 40 42 43 44 46 47 49 51 51 52 54 55 55 56 57 57 57 56 55 54 53 51 49 46 44 43 41 39
38 38 38 38 38 38 38 38 39 40 40 41 42 44 46 47 49 50 51 52 54 54 55 56 57 57 57 55 54 53 51 49 46 44 42 41 39 37
38 37 37 37 37 37 38 38 39 39 40 41 43 44 46 47 48 49 50 52 53 54 54 56 57 57 56 55 53 51 49 47 44 42 40 39 37 36
38 37 37 36 36 36 37 38 38 39 40 41 43 44 45 46 47 48 49 51 53 53 54 54 55 55 54 53 51 49 47 44 42 40 39 38 36 34
38 37 36 35 35 36 37 38 37 38 40 41 42 43 44 45 45 47 49 51 52 52 52 53 54 53 51 50 48 46 45 42 40 39 38 36 35 33
38 36 35 35 35 36 36 36 37 38 39 40 41 42 43 44 45 46 49 50 51 51 51 52 53 52 50 47 46 45 43 41 39 38 37 36 33 31
36 34 34 34 34 34 34 35 37 38 38 39 40 41 42 43 44 46 48 49 50 51 51 51 51 50 48 45 44 43 42 40 39 38 37 35 32 30
34 34 33 33 33 33 34 35 36 36 37 38 39 40 41 41 43 45 47 49 50 50 51 50 49 48 46 44 42 41 41 40 39 37 35 33 31 29
32 32 32 32 32 32 33 33 34 35 36 37 38 38 39 40 42 44 46 48 49 50 50 49 48 47 45 43 42 40 40 39 38 36 34 32 30 29
31 31 31 30 30 31 32 32 33 34 35 36 36 37 38 40 42 44 45 47 48 48 47 47 47 46 44 42 40 39 38 38 37 35 33 31 29 28
31 30 29 28 29 29 30 31 32 33 34 34 34 36 38 40 41 43 45 46 47 46 46 45 45 45 43 41 39 38 37 37 36 35 33 31 29 28
29 28 27 27 27 28 29 30 31 32 32 33 34 35 37 39 41 42 44 46 46 45 45 44 43 43 41 38 36 36 36 36 35 34 33 31 29 28
28 27 26 26 27 28 28 29 30 31 31 32 33 35 36 38 40 42 43 45 45 44 43 43 42 41 39 36 35 35 35 35 35 34 33 31 29 27
27 26 25 25 26 27 28 29 30 30 30 32 33 34 36 38 39 41 42 43 43 43 42 41 40 39 37 35 34 34 35 35 34 33 32 30 28 26
26 25 25 25 25 26 28 29 29 29 30 31 32 33 35 37 39 40 41 42 41 41 40 39 38 37 36 34 34 34 35 34 33 32 30 29 27 25
25 24 24 24 24 25 26 27 28 29 30 31 32 33 35 37 38 39 40 39 39 39 38 37 36 35 34 34 33 34 34 33 32 30 29 28 26 23
Wind_Direction
268 272 275 279 283 287 290 293 296 299 302 304 305 307 309 311 313 315 316 318 319 320 320 320 320 320 321 321 320 320 319 319 318 317 316 315 313 311
268 272 275 278 282 286 290 293 297 299 301 303 306 308 309 311 314 315 317 319 320 320 320 320 321 322 322 322 322 322 321 320 319 319 318 317 315 313
268 272 275 278 282 286 289 293 296 299 301 303 306 308 310 312 314 316 318 319 321 320 320 321 322 323 323 323 323 323 322 321 320 320 319 317 316 315
269 272 274 277 282 286 289 293 296 299 301 303 306 308 310 312 314 317 319 320 321 321 321 322 323 324 324 324 324 324 323 322 321 321 320 318 317 316
269 272 274 278 283 286 289 293 296 299 301 304 306 308 310 313 315 318 319 320 321 322 322 324 324 325 325 325 325 325 324 323 322 321 321 320 319 318
270 272 275 279 283 286 289 293 296 299 301 304 306 309 311 314 316 318 320 321 322 322 323 325 326 326 326 326 326 325 325 324 323 323 322 321 321 320
269 272 276 280 283 286 290 293 296 299 301 304 307 310 312 314 316 319 320 321 322 323 324 325 326 326 327 326 326 326 326 325 325 324 323 323 322 321
269 272 276 280 283 286 290 293 296 299 301 304 307 310 312 314 317 319 320 322 323 324 324 325 326 327 327 327 327 327 327 327 326 325 325 325 324 324
269 272 276 279 282 285 289 292 296 299 301 305 308 311 313 315 317 319 321 323 324 325 326 326 327 328 328 328 328 328 328 328 328 327 327 327 327 326
269 272 275 278 282 285 289 293 296 299 302 305 308 310 313 315 318 320 322 324 326 326 326 327 329 329 329 329 329 330 330 330 329 329 329 329 329 328
268 271 274 277 281 285 289 292 296 299 302 306 309 311 313 316 319 321 323 325 326 327 327 328 330 331 331 330 331 332 333 332 332 332 331 331 331 330
267 269 272 276 281 285 289 292 296 299 302 306 309 312 314 317 319 322 324 326 327 328 329 329 330 331 331 331 332 333 334 334 333 333 332 332 332 331
266 268 270 276 281 285 289 292 296 299 303 306 310 313 315 318 320 323 325 327 329 329 329 330 331 332 333 333 333 334 336 336 335 335 334 333 332 332
264 268 271 276 280 285 289 292 295 299 303 307 311 314 316 318 321 324 326 328 329 330 330 331 332 333 334 334 334 335 337 337 337 336 336 334 333 333
264 267 271 276 280 284 287 291 296 300 305 309 313 315 317 319 323 326 327 329 330 331 331 332 333 333 334 335 335 336 338 339 339 338 338 337 335 335
263 267 271 276 279 283 287 292 297 302 307 310 313 315 317 321 324 326 328 330 331 331 332 333 334 334 334 335 336 337 338 340 341 341 341 340 338 337
261 265 271 276 280 284 288 293 299 304 308 311 313 315 318 321 324 327 328 330 331 332 332 333 334 335 335 335 336 337 339 341 342 342 342 341 340 339
260 266 271 275 281 285 290 295 300 305 309 310 313 316 319 322 325 327 328 330 332 332 333 333 334 335 336 336 337 338 340 342 342 342 342 340 340 339
260 266 270 275 282 287 292 297 302 306 308 311 314 317 320 323 325 327 329 331 332 333 333 333 334 336 336 337 338 339 340 342 343 342 342 341 339 338
260 264 270 277 283 288 293 297 301 305 308 312 315 318 320 323 325 327 329 331 332 333 334 334 335 337 338 338 338 340 341 342 343 343 343 342 341 340
259 264 270 278 285 288 293 298 302 305 309 313 316 318 321 324 326 328 330 332 333 334 334 335 337 338 339 339 339 340 342 343 343 344 344 344 344 344
257 263 270 279 283 288 294 298 302 305 308 312 315 318 321 324 326 329 331 332 334 335 336 337 338 339 340 340 341 342 343 344 345 345 346 347 347 348
257 264 272 278 284 289 294 298 301 304 308 312 315 318 321 324 327 329 332 333 335 337 337 338 339 340 341 342 343 344 345 346 346 347 348 350 352 352